Location: Banksville Park
(38.5557°N, 75.1182°W)
Time: 02:18:40
(UTC+00:00)

PKM - Pass Details

Date: 19 September 2020
Orbit: 563 x 13592 km, 55.4° (Epoch: 30 October)

Event Time Altitude Azimuth Distance (km) Brightness Sun altitude
Rises 10:08:41 0° 316° (NW) 2,990 7.2 -8.1°
Reaches altitude 10° 10:10:55 10° 320° (NW) 1,892 6.2 -7.7°
Maximum altitude 10:14:24 64° 43° (NE) 655 4.4 -7.0°
Drops below altitude 10° 10:19:04 10° 127° (SE) 2,517 7.9 -6.1°
Sets 10:22:31 0° 130° (SE) 4,178 9.0 -5.4°
